Regional Weather Roundup
Issued by NWS

Home | Current Version | Previous Version | Text Only | Print | Product List | Glossary On
Versions: 1 2 3 4 5 6 7 8 9 10 11 12 13 14 15 16 17 18 19 20 21 22 23 24 25 26 27 28 29 30 31 32 33 34 35 36 37 38 39 40 41 42 43 44 45 46 47 48 49 50
000
ASUS45 KPSR 290010
RWRAZ

ARIZONA REGIONAL HOURLY WEATHER ROUNDUP
NATIONAL WEATHER SERVICE PHOENIX AZ
500 PM MST SAT MAR 28 2015

NOTE: FAIR INDICATES FEW OR NO CLOUDS BELOW 12,000 FEET WITH NO
SIGNIFICANT WEATHER AND/OR OBSTRUCTIONS TO VISIBILITY.

AZZ001>003-036-290100-
NORTHWEST ARIZONA

CITY           SKY/WX    TMP DP  RH WIND       PRES   REMARKS
BULLHEAD CITY  SUNNY     95  19   6 S10G18    29.90S
KINGMAN        SUNNY     82  20  10 SW15      30.07F
6HR MIN TEMP:  79; 6HR MAX TEMP:  85;

$$

AZZ004>008-015-016-018-290100-
NORTH CENTRAL ARIZONA

CITY           SKY/WX    TMP DP  RH WIND       PRES   REMARKS
GRAND CANYON   SUNNY     71  14  11 W12G22    30.22F
6HR MIN TEMP:  65; 6HR MAX TEMP:  72;

WILLIAMS       SUNNY     70  16  12 W10       30.31S
PRESCOTT       SUNNY     75  12   9 W13       30.17S
6HR MIN TEMP:  72; 6HR MAX TEMP:  78;

FLAGSTAFF      SUNNY     69  12  11 SW17G24   30.26F
6HR MIN TEMP:  65; 6HR MAX TEMP:  70;

PAYSON         SUNNY     77  14   9 W12G18    30.20S
PAGE           SUNNY     82  18   9 W10G17    30.04F
6HR MIN TEMP:  69; 6HR MAX TEMP:  84;

$$

AZZ009>014-017-290100-
NORTHEAST ARIZONA

CITY           SKY/WX    TMP DP  RH WIND       PRES   REMARKS
WINSLOW        SUNNY     81   6   5 SW18G28   30.12S
6HR MIN TEMP:  71; 6HR MAX TEMP:  85;

SAINT JOHNS    SUNNY     78  -9   3 W17G32    30.14S
6HR MIN TEMP:  70; 6HR MAX TEMP:  81;

WINDOW ROCK    SUNNY     73   4   7 W20G28    30.20S
6HR MIN TEMP:  71; 6HR MAX TEMP:  76;

SHOW LOW       SUNNY     72   5   7 W13       30.25S
$$

AZZ023-290100-
GREATER PHOENIX AREA

CITY           SKY/WX    TMP DP  RH WIND       PRES   REMARKS
PHOENIX        MOSUNNY   93  15   6 VRB6      29.93F
6HR MIN TEMP:  83; 6HR MAX TEMP:  95;

BUCKEYE        SUNNY     91  25   9 SE5       29.94F
GLENDALE       SUNNY     93  14   5 SW6       29.95F
LUKE AFB       SUNNY     92  20   7 CALM      29.93F
6HR MIN TEMP:  81; 6HR MAX TEMP:  92; 6HR PCP: TRACE;

DEER VALLEY    SUNNY     89  18   7 VRB6      29.95F
6HR MIN TEMP:  81; 6HR MAX TEMP:  90;

SCOTTSDALE     SUNNY     91  14   6 VRB6      29.97F
6HR MIN TEMP:  82; 6HR MAX TEMP:  92;

MESA-FALCON    MOSUNNY   91  10   5 SW6         N/A
CHANDLER       SUNNY     91  19   7 NW7       29.95F
$$

AZZ027-028-290100-
SOUTHWEST MARICOPA COUNTY AND PINAL COUNTY

CITY           SKY/WX    TMP DP  RH WIND       PRES   REMARKS
CASA GRANDE    SUNNY     91  28  10 CALM      29.95S
6HR MIN TEMP:  81; 6HR MAX TEMP:  93;

GILA BEND      FAIR      94  17   6 W5        29.92F
6HR MIN TEMP:  85; 6HR MAX TEMP:  95;

$$

AZZ503-504-507>509-290100-
SOUTHEAST ARIZONA

CITY           SKY/WX    TMP DP  RH WIND       PRES   REMARKS
TUCSON         SUNNY     91  17   6 VRB5      30.04S
6HR MIN TEMP:  82; 6HR MAX TEMP:  93;

DAVIS-MONTHAN  SUNNY     89  18   7 NW13      30.02F
6HR MIN TEMP:  81; 6HR MAX TEMP:  90;

RYAN FIELD       N/A     91  27   9 NW9G16    30.02F
NOGALES        SUNNY     87  15   7 SW14      30.09F
6HR MIN TEMP:  80; 6HR MAX TEMP:  89;

SIERRA VISTA   SUNNY     82  13   7 NW12G18   30.15S
6HR MIN TEMP:  76; 6HR MAX TEMP:  85;

DOUGLAS        SUNNY     86  15   7 W7G20     30.10S
6HR MIN TEMP:  78; 6HR MAX TEMP:  87;

SAFFORD        SUNNY     89  10   5 NW18G25   30.02S
6HR MIN TEMP:  75; 6HR MAX TEMP:  91;

$$

AZZ020-021-025-026-031-290100-
SOUTHWEST ARIZONA

CITY           SKY/WX    TMP DP  RH WIND       PRES   REMARKS
YUMA           SUNNY     96  24   7 W3        29.89F
6HR MIN TEMP:  86; 6HR MAX TEMP:  98;

$$

CAZ031-033-041-043-047-048-061-290100-
SOUTHERN CALIFORNIA

CITY           SKY/WX    TMP DP  RH WIND       PRES   REMARKS
DOWNTOWN L.A.  SUNNY     79  54  41 VRB3      29.99S
6HR MIN TEMP:  75; 6HR MAX TEMP:  81;

L.A. AIRPORT   MOSUNNY   67  58  72 W12       30.01S
6HR MIN TEMP:  66; 6HR MAX TEMP:  71;

SAN DIEGO      MOSUNNY   70  57  63 NW8       30.02F
6HR MIN TEMP:  68; 6HR MAX TEMP:  73;

BURBANK        SUNNY     84  26  12 S8        30.00S
6HR MIN TEMP:  77; 6HR MAX TEMP:  86;

ONTARIO        MOSUNNY   86  32  14 W12G21    30.00S
6HR MIN TEMP:  80; 6HR MAX TEMP:  89;

RIVERSIDE      SUNNY     85  30  13 W14G23    29.98F
6HR MIN TEMP:  80; 6HR MAX TEMP:  90;

PALM SPRINGS   SUNNY     99  17   5 N7        29.89F
6HR MIN TEMP:  89; 6HR MAX TEMP: 100;

EL CENTRO NAS  SUNNY     97  33  10 SE9       29.86F
6HR MIN TEMP:  89; 6HR MAX TEMP:  98;

IMPERIAL       SUNNY     98  32  10 E10       29.85F
6HR MIN TEMP:  86; 6HR MAX TEMP:  98;

BLYTHE         SUNNY     96  33  11 SE7       29.89F
6HR MIN TEMP:  81; 6HR MAX TEMP:  97;

NEEDLES        SUNNY     96  18   6 S10       29.90F
6HR MIN TEMP:  84; 6HR MAX TEMP:  97;

$$

NVZ020-UTZ003-290100-
SOUTHERN NEVADA-UTAH

CITY           SKY/WX    TMP DP  RH WIND       PRES   REMARKS
LAS VEGAS      SUNNY     90   8   4 S16G22    29.92F
6HR MIN TEMP:  77; 6HR MAX TEMP:  91;

SALT LAKE CITY MOSUNNY   70  27  20 NW17      30.11S
6HR MIN TEMP:  68; 6HR MAX TEMP:  74;

$$

NMZ009-TXZ055-290100-
NEW MEXICO-WEST TEXAS

CITY           SKY/WX    TMP DP  RH WIND       PRES   REMARKS
ALBUQUERQUE    SUNNY     80  17   9 NW8       30.08S
6HR MIN TEMP:  68; 6HR MAX TEMP:  81;

EL PASO        SUNNY     87   6   4 NW15G25   30.05R
6HR MIN TEMP:  75; 6HR MAX TEMP:  88;

$$


........................KEY........................
SKY/WX - SKY CONDITION/WEATHER
TMP    - TEMPERATURE IN FAHRENHEIT
DP     - DEW POINT IN FAHRENHEIT
RH     - RELATIVE HUMIDITY IN PERCENT
WIND   - DIRECTION AND SPEED IN MILES PER HOUR (MPH)
VRB    - VARIABLE WIND DIRECTION
PRES   - MEAN SEA LEVEL PRESSURE IN INCHES OF MERCURY
         F - FALLING PRESSURE   R - RISING PRESSURE
         S - STEADY PRESSURE
VSB    - VISIBILITY IN MILES
HX     - HEAT INDEX IN FAHRENHEIT
WCI    - WIND CHILL INDEX IN FAHRENHEIT
TC     - TEMPERATURE IN CELSIUS WHICH IS ALSO KNOWN AS
         TEMPERATURE IN CENTIGRADE
AFB    - AIR FORCE BASE
         LUKE AFB IS LUKE AIR FORCE BASE
         DAVIS-MONTHAN IS DAVIS-MONTHAN AIR FORCE BASE
NAS    - NAVAL AIR STATION
         EL CENTRO NAS IS EL CENTRO NAVAL AIR STATION
N/A    - NOT AVAILABLE




USA.gov is the U.S. government's official web portal to all federal, state and local government web resources and services.